Imperial, NE

1:52 AM MDT on July 23, 2017 (GMT -0600)
Imperial Municipal

Weather History for KIML - November, 2013

Change the Weather History Date:

Friday, November 1, 2013

  Actual Average Record
Temperature  
Mean Temperature 43 °F 44 °F  
Max Temperature 57 °F 58 °F 79 °F (2015)
Min Temperature 29 °F 30 °F 11 °F (2002)
Degree Days  
Heating Degree Days 22 21  
Month to date heating degree days 22 21  
Cooling Degree Days 0 0  
Month to date cooling degree days 0 0  
Year to date cooling degree days 1166 963  
Moisture  
Dew Point 26 °F    
Average Humidity 52    
Maximum Humidity 79    
Minimum Humidity 24    
Precipitation  
Precipitation 0.00 in 0.04 in 0.95 in (1928)
Sea Level Pressure  
Sea Level Pressure 30.04 in    
Wind  
Wind Speed 16 mph (NW)    
Max Wind Speed 35 mph    
Max Gust Speed 45 mph    
Visibility 10 miles    
Events      
T = Trace of Precipitation, MM = Missing Value Source: NWS Daily Summary

Daily Weather History Graph

Daily Weather History Graph

Search for Another Location

Airport or City:

Trip Planner

Search our weather history database for the weather conditions in past years. The results will help you decide how hot, cold, wet, or windy it might be!

Date:

Astronomy

Nov. 01, 2013 Rise Set
Actual Time 7:16 AM MDT 5:42 PM MDT
Civil Twilight 6:48 AM MDT 6:11 PM MDT
Nautical Twilight 6:16 AM MDT 6:43 PM MDT
Astronomical Twilight 5:44 AM MDT 7:15 PM MDT
Moon 5:10 AM MDT (11/1) 4:37 PM MDT (11/1)
Length of Visible Light 11h 22m
Length of Day
10h 26m
Waning Crescent, 4% of the Moon is Illuminated
Nov 1
Waning Crescent
Nov 3
New
Nov 9
First Quarter
Nov 17
Full
Nov 25
Last Quarter

Hourly Weather History & Observations

Time (MDT) Temp. Windchill Dew Point Humidity Pressure Visibility Wind Dir Wind Speed Gust Speed Precip Events Conditions
12:53 AM 48.9 °F - 33.1 °F 54% 29.80 in 10.0 mi NW 16.1 mph - N/A   Overcast
1:53 AM 48.9 °F - 34.0 °F 56% 29.81 in 10.0 mi NW 18.4 mph 29.9 mph N/A   Overcast
2:53 AM 46.9 °F - 35.1 °F 63% 29.83 in 10.0 mi WNW 12.7 mph 19.6 mph N/A   Mostly Cloudy
3:53 AM 42.1 °F 35.2 °F 34.0 °F 73% 29.86 in 10.0 mi West 12.7 mph - N/A   Clear
4:53 AM 39.9 °F 31.8 °F 33.1 °F 77% 29.88 in 10.0 mi West 15.0 mph - N/A   Clear
5:53 AM 42.1 °F 34.5 °F 30.9 °F 65% 29.93 in 10.0 mi NW 15.0 mph 24.2 mph N/A   Clear
6:53 AM 41.0 °F 32.8 °F 30.9 °F 67% 29.98 in 10.0 mi NW 16.1 mph 25.3 mph N/A   Clear
7:53 AM 39.9 °F 31.8 °F 30.9 °F 70% 30.01 in 10.0 mi NW 15.0 mph - N/A   Clear
8:53 AM 44.1 °F 35.7 °F 30.9 °F 60% 30.04 in 10.0 mi NW 20.7 mph 28.8 mph N/A   Clear
9:53 AM 48.9 °F - 30.9 °F 50% 30.05 in 10.0 mi NW 19.6 mph 25.3 mph N/A   Clear
10:53 AM 52.0 °F - 28.0 °F 40% 30.04 in 10.0 mi NW 25.3 mph 32.2 mph N/A   Clear
11:53 AM 54.0 °F - 25.0 °F 33% 30.04 in 10.0 mi NNW 23.0 mph 40.3 mph N/A   Clear
12:53 PM 55.9 °F - 24.1 °F 29% 30.03 in 10.0 mi NW 24.2 mph 36.8 mph N/A   Partly Cloudy
1:53 PM 53.1 °F - 23.0 °F 31% 30.03 in 10.0 mi NW 25.3 mph 39.1 mph N/A   Partly Cloudy
2:53 PM 55.9 °F - 21.9 °F 27% 30.04 in 10.0 mi NW 28.8 mph 38.0 mph N/A   Mostly Cloudy
3:53 PM 55.0 °F - 19.0 °F 24% 30.07 in 10.0 mi NNW 28.8 mph 39.1 mph N/A   Mostly Cloudy
4:53 PM 53.1 °F - 19.0 °F 26% 30.09 in 10.0 mi NW 19.6 mph 31.1 mph N/A   Partly Cloudy
5:53 PM 48.9 °F - 19.0 °F 31% 30.12 in 10.0 mi NNW 13.8 mph 25.3 mph N/A   Clear
6:53 PM 45.0 °F 40.1 °F 19.0 °F 36% 30.16 in 10.0 mi NNW 9.2 mph - N/A   Clear
7:53 PM 43.0 °F 37.7 °F 19.9 °F 40% 30.19 in 10.0 mi NW 9.2 mph - N/A   Clear
8:53 PM 39.0 °F 33.4 °F 19.9 °F 46% 30.20 in 10.0 mi WNW 8.1 mph - N/A   Clear
9:53 PM 35.1 °F 30.1 °F 19.9 °F 54% 30.22 in 10.0 mi WNW 5.8 mph - N/A   Clear
10:53 PM 34.0 °F 28.8 °F 21.0 °F 59% 30.22 in 10.0 mi NW 5.8 mph - N/A   Clear
11:53 PM 30.9 °F 22.2 °F 19.9 °F 64% 30.23 in 10.0 mi West 10.4 mph - N/A   Clear